Weather History for 67775 - August, 2013

Change the Weather History Date:

Saturday, August 24, 2013

  Actual Average Record
Temperature  
Mean Temperature 63 °F -  
Max Temperature 75 °F 79 °F - ()
Min Temperature 51 °F 50 °F - ()
Degree Days  
Heating Degree Days 2    
Growing Degree Days 13 (Base 50)    
Moisture  
Dew Point 46 °F    
Average Humidity 55    
Maximum Humidity 94    
Minimum Humidity 21    
Precipitation  
Precipitation 0.00 in 0.01 in - ()
Sea Level Pressure  
Sea Level Pressure 30.31 in    
Wind  
Wind Speed 9 mph ()    
Max Wind Speed 15 mph    
Max Gust Speed -    
Visibility 7.9 miles    
Events      
T = Trace of Precipitation, MM = Missing Value Source: Averaged Metar Reports

Daily Weather History Graph

Daily Weather History Graph

Search for Another Location

Airport or City:

Trip Planner

Search our weather history database for the weather conditions in past years. The results will help you decide how hot, cold, wet, or windy it might be!

Date:

Astronomy

Aug. 24, 2013 Rise Set
Actual Time 6:08 AM CAT 5:47 PM CAT
Civil Twilight 5:46 AM CAT 6:09 PM CAT
Nautical Twilight 5:21 AM CAT 6:34 PM CAT
Astronomical Twilight 4:55 AM CAT 7:00 PM CAT
Moon 9:06 PM CAT (8/24) 8:18 AM CAT (8/24)
Length of Visible Light 12h 22m
Length of Day
11h 38m
Waning Gibbous, 86% of the Moon is Illuminated
Aug 24
Waning Gibbous
Aug 28
Last Quarter
Sep 5
New
Sep 12
First Quarter
Sep 19
Full

Hourly Weather History & Observations

Time (CAT) Temp. Dew Point Humidity Pressure Visibility Wind Dir Wind Speed Gust Speed Precip Events Conditions
12:00 AM 57.2 °F 48.2 °F 72% 30.33 in - ENE 11.5 mph - N/A   Clear
1:00 AM 55.4 °F 48.2 °F 77% 30.30 in - East 6.9 mph - N/A   Clear
2:00 AM 53.6 °F 48.2 °F 82% 30.30 in - ESE 5.8 mph - N/A   Clear
5:00 AM 51.8 °F 50.0 °F 94% 30.27 in - East 9.2 mph - N/A   Clear
6:00 AM 51.8 °F 48.2 °F 88% 30.30 in - East 10.4 mph - N/A   Clear
7:00 AM 53.6 °F 50.0 °F 88% 30.30 in 5.0 mi East 10.4 mph - N/A   Clear
8:00 AM 59 °F 53 °F 73%  in 6 mi ENE 15.0 mph - -   Haze
8:00 AM 59.0 °F 51.8 °F 77% 30.33 in - ENE 15.0 mph - N/A   Clear
9:00 AM 59.0 °F 51.8 °F 77% 30.33 in - ENE 15.0 mph - N/A   Clear
10:00 AM 68.0 °F 48.2 °F 49% 30.39 in - East 13.8 mph - N/A   Clear
11:00 AM 69.8 °F 46.4 °F 43% 30.36 in 6.2 mi ENE 10.4 mph - N/A   Partly Cloudy
12:00 PM 71.6 °F 39.2 °F 31% 30.33 in 6.2 mi NE 10.4 mph - N/A   Partly Cloudy
1:00 PM 73.4 °F 44.6 °F 36% 30.30 in - East 11.5 mph - N/A   Clear
2:00 PM 75 °F 43 °F 21%  in 12 mi ENE 9.2 mph - -   Haze
2:00 PM 75.2 °F 42.8 °F 31% 30.27 in - ENE 9.2 mph - N/A   Clear
3:00 PM 73.4 °F 42.8 °F 33% 30.27 in - East 9.2 mph - N/A   Clear
4:00 PM 73.4 °F 42.8 °F 33% 30.27 in - East 9.2 mph - N/A   Clear
5:00 PM 71.6 °F 42.8 °F 35% 30.27 in - ENE 10.4 mph - N/A   Clear
6:00 PM 66.2 °F 42.8 °F 43% 30.27 in - NE 6.9 mph - N/A   Clear
8:00 PM 61 °F 42 °F 38%  in 12 mi NE 8.1 mph - -   Haze
8:00 PM 60.8 °F 41.0 °F 48% 30.33 in - NE 8.1 mph - N/A   Clear
9:00 PM 59.0 °F 41.0 °F 51% 30.33 in - ENE 10.4 mph - N/A   Clear
10:00 PM 57.2 °F 39.2 °F 51% 30.33 in - East 9.2 mph - N/A   Clear